FW2264 Weather Reports


time (UTC)temp
C
wind
direction
speed
KPH
gust
KPH
rain 1hr
cm
rain 24hr
cm
rain mn
cm
humidity
%
barometer
mb
20260506215555 11 211 3.2 8.0 0.00 3.96 1.96 52 1011.5
20260506215049 11 202 3.2 8.0 0.00 4.14 1.96 50 1011.4
20260506214543 12 183 1.6 4.8 0.00 4.14 1.96 52 1011.4
20260506214300 12 198 3.2 6.4 0.00 4.14 1.96 55 1011.2
20260506213531 12 198 3.2 6.4 0.00 4.14 1.96 52 1011.1
20260506213025 12 179 3.2 9.7 0.00 4.14 1.96 52 1011.1
20260506212520 12 186 4.8 9.7 0.00 4.14 1.96 51 1011.1
20260506212013 12 182 3.2 8.0 0.00 4.14 1.96 53 1011.1
20260506211507 12 186 3.2 6.4 0.00 4.14 1.96 56 1011.2
20260506211001 12 190 3.2 6.4 0.00 4.14 1.96 53 1011.2
20260506210456 12 199 1.6 8.0 0.00 4.14 1.96 52 1011.1
20260506210208 12 187 1.6 6.4 0.00 4.14 1.96 52 1011.1
20260506205443 12 192 1.6 6.4 0.00 4.14 1.96 55 1010.9
20260506204936 12 180 1.6 6.4 0.00 4.14 1.96 55 1010.8
20260506204916 12 156 1.6 6.4 0.00 4.14 1.96 53 1011.0
20260506204200 12 277 3.2 8.0 0.00 4.14 1.96 51 1011.0
20260506203429 12 188 3.2 9.7 0.00 4.14 1.96 52 1010.8
20260506202927 12 183 1.6 9.7 0.00 4.14 1.96 51 1010.8
20260506202427 12 234 3.2 8.0 0.00 4.14 1.96 51 1010.7
20260506201929 12 186 3.2 8.0 0.00 4.14 1.96 53 1010.7
20260506201425 11 181 3.2 6.4 0.00 4.14 1.96 55 1010.7
20260506201150 11 199 3.2 6.4 0.00 4.14 1.96 54 1010.7
20260506200422 11 175 3.2 6.4 0.00 4.14 1.96 55 1011.0
20260506195919 12 205 3.2 6.4 0.00 4.14 1.96 52 1010.9
20260506195416 12 181 3.2 6.4 0.00 4.14 1.96 53 1010.9
20260506194915 12 198 3.2 6.4 0.00 4.14 1.96 53 1011.0
20260506194416 12 202 1.6 6.4 0.00 4.14 1.96 53 1010.9
20260506193916 12 178 3.2 8.0 0.00 4.14 1.96 53 1010.9
20260506193416 12 180 3.2 8.0 0.00 4.14 1.96 52 1011.0
20260506192915 13 192 3.2 11.3 0.00 4.14 1.96 50 1010.8
20260506192414 13 181 1.6 11.3 0.00 4.14 1.96 51 1010.6
20260506191911 13 215 1.6 4.8 0.00 4.14 1.96 53 1010.6
20260506191410 13 172 3.2 12.9 0.00 4.14 1.96 51 1010.6
20260506190911 13 193 3.2 12.9 0.00 4.14 1.96 53 1010.6
20260506190411 13 227 3.2 9.7 0.00 4.14 1.96 53 1010.5
20260506185911 13 200 3.2 9.7 0.00 4.14 1.96 51 1010.6
20260506185411 13 219 1.6 9.7 0.00 4.14 1.96 51 1010.6
20260506184910 13 163 1.6 9.7 0.00 4.14 1.96 49 1010.7
20260506184855 13 251 3.2 11.3 0.00 4.14 1.96 52 1010.9
20260506183911 13 183 3.2 11.3 0.00 4.14 1.96 50 1010.7
20260506183411 13 173 3.2 9.7 0.00 4.14 1.96 52 1010.7
20260506182911 13 193 3.2 6.4 0.00 4.14 1.96 50 1010.9
20260506182411 13 163 3.2 6.4 0.00 4.14 1.96 49 1010.7
20260506181910 13 272 3.2 12.9 0.00 4.14 1.96 51 1010.8
20260506181636 13 274 4.8 12.9 0.00 4.14 1.96 51 1010.8
20260506180910 13 195 3.2 8.0 0.00 4.14 1.96 48 1010.8
20260506180411 13 171 3.2 9.7 0.00 4.14 1.96 51 1010.6
20260506175911 13 273 3.2 9.7 0.00 4.14 1.96 53 1010.8
20260506175411 13 150 3.2 9.7 0.00 4.14 1.96 53 1010.8
20260506174909 13 171 1.6 9.7 0.00 4.14 1.96 48 1010.9
20260506174359 13 179 1.6 9.7 0.00 4.14 1.96 48 1010.8
20260506173852 13 198 3.2 9.7 0.00 4.14 1.96 52 1010.8
20260506173346 13 290 3.2 9.7 0.00 4.14 1.96 51 1010.8
20260506172840 13 148 1.6 9.7 0.00 4.14 1.96 48 1010.7
20260506172334 13 312 3.2 8.0 0.00 4.14 1.96 52 1010.7
20260506172322 13 192 3.2 9.7 0.00 4.14 1.96 52 1010.8
20260506171322 13 221 3.2 9.7 0.00 4.14 1.96 52 1010.8
20260506170816 13 153 3.2 9.7 0.00 4.14 1.96 52 1010.7
20260506170310 13 237 3.2 9.7 0.00 4.14 1.96 52 1010.8
20260506165804 12 88 3.2 9.7 0.00 4.14 1.96 56 1010.8
20260506165258 13 296 1.6 11.3 0.00 4.14 1.96 50 1010.7
20260506164752 13 270 1.6 11.3 0.00 4.14 1.96 55 1010.8
20260506164510 12 174 3.2 11.3 0.00 4.14 1.96 58 1011.1
20260506163740 12 178 3.2 11.3 0.00 4.14 1.96 53 1011.0
20260506163234 12 150 1.6 6.4 0.00 4.14 1.96 57 1011.0
20260506162728 12 285 1.6 8.0 0.00 4.14 1.96 62 1010.8
20260506162222 12 253 3.2 8.0 0.00 4.14 1.96 58 1010.7
20260506161716 12 234 3.2 8.0 0.00 4.14 1.96 60 1010.7
20260506161210 12 229 3.2 8.0 0.00 4.14 1.96 59 1010.6
20260506160704 12 172 3.2 8.0 0.00 4.14 1.96 60 1010.6
20260506160414 12 219 1.6 6.4 0.00 4.14 1.96 60 1010.7
20260506155651 12 277 1.6 6.4 0.00 4.14 1.96 64 1010.6
20260506155146 11 178 1.6 6.4 0.00 4.14 1.96 64 1010.5
20260506154640 11 288 1.6 6.4 0.00 4.14 1.96 64 1010.2
20260506154355 11 71 1.6 8.0 0.00 4.14 1.96 64 1010.3
20260506153627 11 186 1.6 8.0 0.00 4.14 1.96 65 1010.4
20260506153349 11 175 1.6 9.7 0.00 4.14 1.96 68 1010.4
20260506152616 11 225 1.6 9.7 0.00 4.14 1.96 69 1010.2
20260506152115 10 253 1.6 6.4 0.00 4.14 1.96 72 1009.8
20260506151606 10 184 1.6 6.4 0.00 4.14 1.96 71 1009.9
20260506151058 10 23 1.6 6.4 0.00 4.14 1.96 74 1010.2
20260506150552 10 238 1.6 4.8 0.00 4.14 1.96 74 1010.3
20260506150047 10 232 1.6 4.8 0.00 4.14 1.96 72 1010.3
20260506145540 10 308 1.6 3.2 0.00 4.14 1.96 73 1010.0
20260506145034 9 314 1.6 3.2 0.00 4.14 1.96 73 1010.0
20260506144748 9 251 1.6 4.8 0.00 4.14 1.96 73 1009.8
20260506144022 9 285 1.6 4.8 0.00 4.14 1.96 75 1009.8
20260506143516 9 311 1.6 4.8 0.03 4.14 1.96 77 1009.5
20260506143010 9 132 1.6 3.2 0.03 4.14 1.96 79 1009.4
20260506142504 8 331 1.6 3.2 0.03 4.14 1.96 80 1009.4
20260506141958 8 236 1.6 3.2 0.03 4.14 1.96 84 1009.3
20260506141452 8 221 1.6 3.2 0.03 4.14 1.96 84 1009.2
20260506140946 8 242 1.6 6.4 0.03 4.14 1.96 86 1009.3
20260506140700 7 273 1.6 6.4 0.03 4.14 1.96 86 1009.3
20260506135934 7 219 0.0 4.8 0.03 4.14 1.96 87 1009.3
20260506135428 7 256 0.0 4.8 0.03 4.14 1.96 90 1009.3
20260506134922 7 221 0.0 4.8 0.03 4.14 1.96 89 1009.1
20260506134420 7 300 0.0 3.2 0.03 4.14 1.96 90 1009.1
20260506133920 7 208 1.6 3.2 0.03 4.14 1.96 90 1009.2
20260506133420 7 236 1.6 3.2 0.00 4.11 1.93 91 1009.1
20260506132920 7 99 1.6 4.8 0.00 4.11 1.93 90 1009.2
20260506132421 6 213 1.6 4.8 0.00 4.11 1.93 91 1009.4
20260506131920 6 246 0.0 3.2 0.00 4.11 1.93 91 1009.2
20260506131418 6 207 0.0 4.8 0.00 4.11 1.93 91 1009.1
20260506130916 6 209 1.6 4.8 0.00 4.11 1.93 91 1009.1
20260506130414 6 355 1.6 4.8 0.00 4.11 1.93 91 1009.0
20260506125912 6 226 1.6 4.8 0.00 4.11 1.93 92 1008.9
20260506125410 7 252 1.6 4.8 0.00 4.11 1.93 93 1008.8
20260506124908 6 227 0.0 4.8 0.00 4.11 1.93 93 1008.6
20260506124406 6 223 0.0 3.2 0.00 4.11 1.93 93 1008.5
20260506123904 6 222 0.0 3.2 0.03 4.11 1.93 93 1008.3
20260506123402 6 222 0.0 3.2 0.03 4.11 1.93 93 1008.2
20260506122903 6 222 0.0 3.2 0.03 4.11 1.93 93 1008.1
20260506122402 6 222 0.0 4.8 0.05 4.11 1.93 93 1007.9
20260506121900 6 246 0.0 4.8 0.08 4.11 1.93 94 1008.1
20260506121358 6 217 0.0 3.2 0.08 4.14 1.93 94 1008.2
20260506120857 6 223 0.0 3.2 0.10 4.14 1.93 94 1008.3
20260506120356 6 223 0.0 3.2 0.10 4.14 1.93 94 1008.3
20260506115854 6 221 0.0 3.2 0.13 4.14 1.93 94 1008.1
20260506115354 6 221 0.0 3.2 0.13 4.14 1.93 94 1008.0
20260506114854 6 238 0.0 3.2 0.15 4.14 1.93 94 1008.1
20260506114354 6 238 0.0 3.2 0.18 4.14 1.93 94 1007.9
20260506113854 6 317 0.0 3.2 0.15 4.11 1.91 94 1007.5
20260506113354 6 268 0.0 3.2 0.18 4.11 1.91 94 1007.4
20260506113112 6 298 0.0 3.2 0.20 4.11 1.91 94 1007.4
20260506112355 6 325 0.0 3.2 0.20 4.09 1.88 94 1007.1
20260506112120 6 340 0.0 3.2 0.20 4.06 1.88 94 1007.0
20260506111350 6 340 0.0 3.2 0.23 4.06 1.85 94 1007.3
20260506110850 6 340 0.0 3.2 0.23 4.04 1.83 94 1007.5
20260506110350 6 304 0.0 3.2 0.25 4.04 1.83 94 1007.4
20260506105849 6 9 0.0 3.2 0.25 4.01 1.80 94 1007.3
20260506105614 6 9 1.6 3.2 0.28 4.01 1.80 94 1007.0
20260506104849 6 13 0.0 3.2 0.28 3.99 1.78 94 1006.8
20260506104350 6 17 0.0 3.2 0.28 3.96 1.75 94 1007.1
20260506103850 6 325 0.0 3.2 0.33 3.96 1.75 94 1007.4
20260506103350 6 130 0.0 3.2 0.33 3.94 1.73 94 1007.4
20260506102843 6 126 0.0 3.2 0.33 3.91 1.70 94 1007.3
20260506102337 6 126 0.0 3.2 0.33 3.89 1.68 94 1006.9
20260506102056 6 76 0.0 3.2 0.33 3.86 1.65 94 1006.4
20260506101325 6 76 0.0 3.2 0.33 3.84 1.63 94 1006.3
20260506100819 6 342 0.0 9.7 0.33 3.81 1.60 94 1006.0
20260506100313 6 341 0.0 9.7 0.33 3.78 1.57 94 1006.1
20260506095808 6 315 1.6 9.7 0.33 3.76 1.55 93 1006.1
20260506095522 6 315 3.2 9.7 0.33 3.73 1.52 93 1005.6
20260506094755 6 351 3.2 8.0 0.33 3.71 1.50 93 1005.3
20260506094248 6 344 1.6 8.0 0.33 3.68 1.47 93 1005.6
20260506093743 6 5 1.6 3.2 0.30 3.63 1.42 93 1006.2
20260506093237 6 25 0.0 3.2 0.30 3.61 1.40 94 1006.3
20260506092949 6 322 0.0 4.8 0.30 3.58 1.37 93 1006.2
20260506092225 6 329 1.6 4.8 0.30 3.56 1.35 93 1006.0
20260506091719 6 340 1.6 4.8 0.30 3.53 1.32 93 1006.0
20260506091432 6 9 1.6 4.8 0.30 3.51 1.30 93 1006.1
20260506091140 6 55 1.6 4.8 0.30 3.48 1.27 93 1006.1
20260506090201 6 182 1.6 3.2 0.33 3.45 1.24 93 1006.4
20260506085655 6 317 0.0 8.0 0.30 3.43 1.22 93 1006.5
20260506085149 6 314 0.0 8.0 0.33 3.40 1.19 93 1006.4
20260506084643 7 332 1.6 6.4 0.33 3.38 1.17 93 1006.3
20260506084137 7 13 1.6 4.8 0.33 3.35 1.14 93 1006.2
20260506083631 7 5 1.6 6.4 0.33 3.33 1.12 93 1006.0
20260506083125 7 327 1.6 6.4 0.33 3.30 1.09 93 1006.1
20260506082619 7 308 1.6 4.8 0.33 3.28 1.07 93 1006.1
20260506082341 7 184 1.6 3.2 0.33 3.25 1.04 93 1006.1
20260506081833 7 253 0.0 8.0 0.33 3.23 1.02 93 1006.0
20260506081102 7 355 1.6 8.0 0.30 3.17 0.99 93 1005.8
20260506080555 7 296 1.6 4.8 0.30 3.15 0.94 94 1005.9
20260506080311 7 324 1.6 6.4 0.30 3.12 0.91 93 1005.8
20260506073235 8 329 0.0 3.2 0.25 3.00 0.76 94 1005.7
20260506072507 8 266 0.0 3.2 0.25 2.97 0.74 94 1005.5
20260506072001 8 19 0.0 3.2 0.23 2.95 0.71 94 1005.4
20260506071455 8 67 0.0 3.2 0.23 2.92 0.69 94 1005.3
20260506070949 8 299 0.0 4.8 0.20 2.90 0.66 94 1005.4
20260506070443 8 312 0.0 4.8 0.20 2.87 0.64 94 1005.5
20260506061849 8 9 1.6 3.2 0.18 2.72 0.48 93 1005.2
20260506061823 8 271 0.0 3.2 0.15 2.69 0.46 93 1005.3
20260506060837 8 58 1.6 6.4 0.18 2.69 0.46 93 1005.4
20260506060555 8 36 1.6 6.4 0.15 2.67 0.43 93 1005.3
20260506051251 9 355 1.6 3.2 0.25 2.54 0.30 94 1005.8
20260506050751 9 351 1.6 3.2 0.25 2.51 0.28 94 1005.8
20260506050511 9 333 1.6 3.2 0.25 2.49 0.28 94 1006.0
20260506044747 9 10 1.6 3.2 0.28 2.44 0.23 93 1005.8
20260506044247 9 13 1.6 3.2 0.30 2.44 0.20 93 1006.0
20260506043747 9 355 1.6 3.2 0.30 2.41 0.18 93 1006.0
20260506043501 9 0 1.6 3.2 0.30 2.39 0.15 93 1006.0
20260506042745 9 34 1.6 3.2 0.30 2.36 0.13 93 1006.1
20260506042245 9 355 1.6 3.2 0.30 2.34 0.10 93 1006.1
20260506041743 9 355 0.0 3.2 0.33 2.31 0.08 93 1006.1
20260506041242 9 96 0.0 3.2 0.33 2.29 0.05 93 1006.1
20260506041001 9 332 0.0 3.2 0.33 2.26 0.03 93 1006.1
20260506040459 9 319 0.0 3.2 0.33 2.24 0.00 93 1006.1
20260506035738 10 335 1.6 3.2 0.33 2.21 2.21 93 1006.2
20260506035232 10 309 0.0 4.8 0.36 2.18 2.18 92 1006.2
20260506034726 10 268 0.0 4.8 0.36 2.16 2.16 92 1006.3
20260506034220 10 284 0.0 3.2 0.36 2.13 2.13 92 1006.5
20260506033714 10 281 1.6 4.8 0.38 2.11 2.11 92 1006.5
20260506033214 10 287 1.6 4.8 0.38 2.08 2.08 91 1006.5
20260506032931 10 270 1.6 6.4 0.38 2.06 2.06 91 1006.6
20260506032212 10 270 1.6 6.4 0.41 2.03 2.03 91 1006.8
20260506031713 11 269 1.6 6.4 0.38 1.98 1.98 91 1006.8
20260506031212 11 279 1.6 4.8 0.38 1.96 1.96 91 1006.7
20260506030712 12 193 3.2 9.7 0.41 1.93 1.93 91 1006.9
20260506030210 12 163 4.8 12.9 0.41 1.91 1.91 91 1006.6
20260506025710 13 203 3.2 12.9 0.38 1.88 1.88 92 1006.5
20260506025433 13 145 3.2 8.0 0.36 1.83 1.83 93 1006.2
20260506024710 13 155 3.2 8.0 0.36 1.80 1.80 93 1006.4
20260506024210 13 157 3.2 8.0 0.33 1.78 1.78 93 1006.5
20260506023709 13 156 3.2 8.0 0.30 1.73 1.73 93 1006.5
20260506023429 13 155 3.2 6.4 0.28 1.70 1.70 93 1006.6
20260506022706 13 153 3.2 8.0 0.28 1.68 1.68 93 1006.6
20260506022207 13 157 3.2 8.0 0.23 1.63 1.63 93 1006.6
20260506021705 13 159 3.2 6.4 0.23 1.60 1.60 93 1006.6
20260506021203 13 156 3.2 6.4 0.25 1.57 1.57 94 1006.6
20260506020659 13 161 3.2 4.8 0.23 1.52 1.52 93 1006.7
20260506020159 13 164 3.2 4.8 0.23 1.50 1.52 93 1006.7
20260506015654 13 167 3.2 4.8 0.28 1.50 1.50 93 1006.7
20260506015418 13 167 3.2 4.8 0.28 1.47 1.47 93 1006.7
20260506014654 13 161 3.2 4.8 0.30 1.45 1.45 93 1006.7
20260506014154 13 164 3.2 4.8 0.36 1.45 1.45 93 1006.7
20260506014130 13 165 4.8 4.8 0.36 1.42 1.42 93 1006.6
20260506013633 13 165 4.8 6.4 0.36 1.42 1.42 93 1006.6
20260506012654 13 162 4.8 6.4 0.36 1.40 1.40 93 1006.5
20260506012634 13 162 4.8 8.0 0.38 1.40 1.40 94 1006.5
20260506011654 13 164 4.8 8.0 0.36 1.35 1.37 94 1006.4
20260506011154 13 163 4.8 8.0 0.33 1.32 1.35 94 1006.3
20260506010654 13 150 4.8 8.0 0.33 1.30 1.30 94 1006.4
20260506010420 13 165 4.8 8.0 0.30 1.27 1.27 94 1006.4
20260506005654 13 165 3.2 8.0 0.28 1.22 1.24 94 1006.4
20260506005154 13 158 3.2 6.4 0.25 1.19 1.19 94 1006.4
20260506004912 13 153 1.6 6.4 0.20 1.14 1.14 94 1006.3
20260506004154 13 167 1.6 6.4 0.18 1.09 1.12 94 1006.3
20260506004006 13 164 0.0 3.2 0.15 1.07 1.07 93 1006.3
20260506003901 13 164 0.0 3.2 0.18 1.07 1.07 93 1006.2
20260506002647 13 164 0.0 1.6 0.20 1.04 1.04 93 1006.2
20260506002143 13 164 1.6 3.2 0.25 1.02 1.02 93 1006.1
20260506001636 13 164 1.6 4.8 0.25 0.99 0.99 93 1006.2
20260506001129 13 164 1.6 4.8 0.25 0.99 0.99 93 1006.3
20260506000843 13 169 1.6 1.6 0.23 0.97 0.97 93 1006.3
20260506000118 13 169 1.6 3.2 0.23 0.97 0.97 93 1006.2
20260505235611 13 169 1.6 3.2 0.20 0.94 0.94 93 1006.2
20260505235105 13 170 1.6 4.8 0.23 0.94 0.94 93 1006.3
20260505234559 13 171 1.6 4.8 0.23 0.94 0.94 93 1006.3
20260505234053 13 186 1.6 4.8 0.23 0.91 0.91 93 1006.3
20260505233547 13 178 3.2 6.4 0.28 0.91 0.91 93 1006.4
20260505233041 13 203 3.2 6.4 0.28 0.89 0.89 93 1006.5
20260505232759 13 179 3.2 6.4 0.25 0.81 0.84 93 1006.6
20260505232028 13 173 3.2 6.4 0.23 0.76 0.76 93 1006.7
20260505231523 13 187 3.2 4.8 0.23 0.74 0.74 93 1006.7
20260505231017 13 184 3.2 4.8 0.28 0.74 0.74 92 1006.6
20260505230727 13 158 3.2 4.8 0.30 0.74 0.74 92 1006.8
20260505230005 13 195 3.2 4.8 0.38 0.74 0.74 92 1006.7
20260505225459 13 169 3.2 4.8 0.51 0.74 0.74 92 1006.7
20260505224953 13 169 3.2 4.8 0.66 0.71 0.71 92 1006.8
20260505224447 13 170 3.2 4.8 0.64 0.69 0.71 92 1006.9
20260505223941 13 172 3.2 4.8 0.61 0.66 0.66 91 1006.9
20260505223435 13 184 3.2 6.4 0.56 0.61 0.64 91 1006.9
20260505222929 13 167 4.8 11.3 0.56 0.61 0.61 90 1007.0
20260505222423 13 190 6.4 11.3 0.51 0.56 0.56 90 1007.0
20260505221917 13 182 6.4 9.7 0.46 0.51 0.53 90 1007.0
20260505221412 13 167 8.0 24.1 0.43 0.48 0.48 89 1007.0
20260505220905 13 157 9.7 24.1 0.41 0.46 0.46 87 1006.9
20260505220618 14 172 12.9 25.7 0.36 0.41 0.43 86 1006.7
20260505215853 15 184 16.1 29.0 0.30 0.36 0.36 82 1006.7